[[{"header":{"parameterUnit":"m.s-1","parameterCategory":1,"la1":30.2991,"la2":30.254,"lo1":-89.0895,"lo2":-89.0444,"dy":0.0017,"dx":0.0017,"nx":28,"ny":28,"refTime":"2025-07-24T09:00:00:Z","depth":0,"parameterNumber":2,"parameterNumberName":"U-component_of_WINDS"},"data":[0,0,0,0,0,0,0,0,0,0,0,0,0,0,0,0,0,0,0,0,0,0,0,0,0,0,0,0,0,0,0,0,0,0,0,0,0,0,0,0,0,0,0,0,0,0,0,0,0,0,0,0,0,0,0,0,0,0,-1.7466,-1.7467,0,-1.7498,-1.7498,-1.7498,-1.7449,-1.7447,-1.7445,-1.7443,-1.7471,-1.7474,-1.7476,0,0,0,0,0,0,0,0,0,0,0,0,0,-1.7361,-1.7363,-1.7466,-1.7467,-1.7467,-1.7498,-1.7498,-1.7498,-1.7449,-1.7447,-1.7445,-1.7443,-1.7471,-1.7473,-1.7476,0,0,0,0,0,0,0,0,0,0,0,0,0,-1.7401,-1.7364,-1.7466,-1.7446,-1.7445,-1.7498,-1.7498,-1.7499,-1.7449,-1.7447,-1.7444,-1.7442,-1.747,-1.7473,-1.7477,-1.7549,0,0,-1.7487,-1.7489,0,0,0,0,0,0,0,0,-1.7398,-1.7404,-1.7449,-1.7448,-1.7446,-1.7467,-1.7471,-1.7515,-1.745,-1.7447,-1.7443,-1.744,-1.7472,-1.7475,-1.7486,-1.7551,-1.7552,-1.7488,-1.749,-1.7491,-1.7492,0,0,0,0,0,0,0,-1.7396,-1.7403,-1.7478,-1.7449,-1.7448,-1.7435,-1.7437,-1.7479,-1.7473,-1.7447,-1.7444,-1.7448,-1.747,-1.7483,-1.7486,-1.7552,-1.7487,-1.7491,-1.7493,-1.7494,-1.768,-1.7683,0,0,0,0,0,0,-1.7396,-1.7401,-1.7477,-1.7479,-1.7416,-1.7439,-1.7442,-1.7463,-1.7473,-1.7472,-1.7451,-1.7446,-1.7478,-1.7482,-1.7487,-1.7575,-1.7491,-1.7494,-1.7496,-1.7677,-1.7681,-1.7684,0,0,0,0,0,0,-1.7394,-1.7403,-1.7476,-1.7439,-1.7448,-1.7443,-1.7467,-1.7464,-1.7477,-1.7475,-1.7474,-1.7465,-1.7476,-1.7482,-1.7535,-1.7575,-1.7496,-1.7499,-1.7674,-1.7678,-1.7682,-1.7749,0,0,0,0,0,0,-1.7391,-1.7403,-1.7431,-1.744,-1.745,-1.7525,-1.7469,-1.7467,-1.7484,-1.7478,-1.7488,-1.7487,-1.7475,-1.753,-1.7539,-1.7578,-1.7502,-1.767,-1.7676,-1.7681,-1.7743,-1.7755,-1.7765,0,0,0,0,0,-1.7387,-1.7447,-1.7432,-1.7442,-1.7485,-1.7527,-1.7532,-1.7518,-1.7487,-1.7515,-1.7514,-1.7487,-1.7569,-1.7536,-1.7545,-1.7586,-1.7668,-1.7674,-1.768,-1.7738,-1.7753,-1.7765,0,0,0,0,0,0,-1.744,-1.7448,-1.7432,-1.7496,-1.7512,-1.7518,-1.7553,-1.7533,-1.7556,-1.755,-1.753,-1.7532,-1.759,-1.7593,-1.7556,-1.7658,-1.7613,-1.7622,-1.7654,-1.7668,-1.7679,-1.7677,-1.7505,0,0,0,0,0,-1.7459,-1.7494,-1.7498,-1.7555,-1.7563,-1.7557,-1.7575,-1.7563,-1.7577,-1.7583,-1.7586,-1.76,-1.7629,-1.7648,-1.7675,-1.7744,-1.7746,-1.7777,-1.7788,-1.7797,-1.7804,-1.7843,-1.7857,-1.7705,-1.7705,-1.7705,0,0,-1.7499,-1.7507,-1.753,-1.7566,-1.7576,-1.7612,-1.7563,-1.7602,-1.7628,-1.7588,-1.7639,-1.7642,-1.7656,-1.7718,-1.7745,-1.7723,-1.7847,-1.7805,-1.7812,-1.7815,-1.7851,-1.7865,-1.7878,-1.7709,-1.7708,-1.7708,0,0,-1.7589,-1.7599,-1.7649,-1.7661,-1.7679,-1.7674,-1.7687,-1.7697,-1.7698,-1.7749,-1.7721,-1.7751,-1.7801,-1.7814,-1.7826,-1.7925,-1.7901,-1.7934,-1.7991,-1.8029,-1.8041,-1.8051,-1.8088,-1.8101,-1.7942,-1.7942,-1.7942,0,-1.7636,-1.769,-1.7676,-1.7719,-1.7735,-1.7703,-1.7753,-1.7765,-1.779,-1.7802,-1.7776,-1.7841,-1.7848,-1.7913,-1.7938,-1.7948,-1.7962,-1.7933,-1.8041,-1.8051,-1.8061,-1.8095,-1.8109,-1.7946,-1.7945,-1.7945,-1.7944,0,-1.7747,-1.7785,-1.7823,-1.7851,-1.7871,-1.7917,-1.791,-1.7932,-1.7919,-1.7918,-1.7971,-1.7979,-1.8008,-1.8022,-1.8009,-1.8086,-1.8072,-1.8044,-1.7998,-1.8079,-1.8112,-1.8124,-1.7951,-1.795,-1.7949,-1.7948,0,0,-1.787,-1.7892,-1.7906,-1.7919,-1.7937,-1.7966,-1.8011,-1.8041,-1.8061,-1.808,-1.8117,-1.8162,-1.8137,-1.8151,-1.8139,-1.8172,-1.8252,-1.814,-1.814,-1.8162,-1.8339,-1.8361,-1.8376,-1.8236,-1.8239,-1.8241,-1.8338,0,-1.7962,-1.8041,-1.8031,-1.8107,-1.8142,-1.8114,-1.8153,-1.8168,-1.8169,-1.8198,-1.8198,-1.8231,-1.8195,-1.8204,-1.8235,-1.8235,-1.8287,-1.8228,-1.827,-1.8272,-1.8269,-1.8393,-1.8415,-1.8507,-1.8351,-1.8353,-1.8354,0,-1.8079,-1.8105,-1.8185,-1.82,-1.8215,-1.825,-1.8278,-1.8307,-1.8324,-1.8322,-1.834,-1.8323,-1.8367,-1.8321,-1.8383,-1.8343,-1.836,-1.8363,-1.8366,-1.837,-1.8318,-1.84,-1.8536,-1.855,-1.8374,-1.8372,-1.8371,0,-1.8162,-1.8217,-1.8272,-1.8284,-1.8303,-1.8329,-1.8338,-1.8352,-1.8372,-1.8396,-1.8409,-1.8437,-1.8453,-1.8475,-1.8465,-1.8432,-1.8529,-1.8482,-1.8529,-1.8529,-1.855,-1.8549,-1.8691,-1.856,-1.856,-1.856,-1.856,0,-1.8266,-1.8316,-1.8311,-1.8345,-1.8401,-1.8389,-1.8444,-1.8449,-1.8463,-1.8497,-1.8473,-1.8506,-1.8491,-1.8523,-1.8515,-1.8569,-1.8575,-1.8575,-1.8572,-1.8577,-1.8578,-1.8588,-1.8582,-1.8564,-1.8563,-1.8562,-1.8561,0,-1.8368,-1.8366,-1.8425,-1.8439,-1.8444,-1.8485,-1.8497,-1.8529,-1.8528,-1.8572,-1.8582,-1.8581,-1.8617,-1.861,-1.8649,-1.8644,-1.8711,-1.87,-1.8706,-1.8704,-1.8752,-1.8748,-1.8905,-1.8926,-1.8782,-1.8783,-1.8784,0,-1.8434,-1.8473,-1.8492,-1.8515,-1.8527,-1.8562,-1.8583,-1.8573,-1.8596,-1.862,-1.8649,-1.8684,-1.8711,-1.877,-1.8772,-1.8802,-1.8792,-1.8846,-1.8797,-1.8801,-1.8794,-1.8793,-1.8797,-1.8855,-1.8857,-1.8858,-1.8859,0,-1.8552,-1.8551,-1.8582,-1.8615,-1.8642,-1.8666,-1.8688,-1.8708,-1.87,-1.8726,-1.8764,-1.8786,-1.8827,-1.8862,-1.8891,-1.8899,-1.8878,-1.8875,-1.8888,-1.8893,-1.8896,-1.8896,-1.8734,-1.8871,-1.887,-1.8869,-1.8869,-1.8868,-1.8639,-1.8673,-1.8693,-1.873,-1.8747,-1.8769,-1.88,-1.8806,-1.8838,-1.8872,-1.8864,-1.8908,-1.8925,-1.8962,-1.8974,-1.9007,-1.8987,-1.9005,-1.901,-1.9014,-1.9021,-1.8891,-1.9012,-1.9012,-1.9011,-1.9011,-1.9011,0,-1.8757,-1.877,-1.8804,-1.8837,-1.8867,-1.8848,-1.8872,-1.8897,-1.8936,-1.8956,-1.8984,-1.9029,-1.9063,-1.9069,-1.9102,-1.9127,-1.9119,-1.9136,-1.9134,-1.9137,-1.9036,-1.9023,-1.9143,-1.9143,-1.9143,-1.9143,-1.9143,-1.9143,-1.8822,-1.8879,-1.888,-1.8946,-1.8957,-1.9002,-1.9017,-1.9038,-1.9053,-1.9105,-1.9135,-1.9139,-1.9153,-1.9187,-1.9218,-1.9219,-1.9232,-1.9254,-1.9251,-1.9157,-1.9144,-1.9131,-1.9118,-1.9256,-1.9257,-1.9349,-1.9349,-1.935]},{"header":{"parameterUnit":"m.s-1","parameterCategory":1,"la1":30.2991,"la2":30.254,"lo1":-89.0895,"lo2":-89.0444,"dy":0.0017,"dx":0.0017,"nx":28,"ny":28,"refTime":"2025-07-24T09:00:00:Z","depth":0,"parameterNumber":3,"parameterNumberName":"V-component_of_WINDS"},"data":[0,0,0,0,0,0,0,0,0,0,0,0,0,0,0,0,0,0,0,0,0,0,0,0,0,0,0,0,0,0,0,0,0,0,0,0,0,0,0,0,0,0,0,0,0,0,0,0,0,0,0,0,0,0,0,0,0,0,-0.2393,-0.2392,0,-0.2358,-0.2357,-0.2357,-0.2286,-0.2284,-0.2283,-0.2281,-0.2248,-0.2248,-0.2249,0,0,0,0,0,0,0,0,0,0,0,0,0,-0.24,-0.2401,-0.2393,-0.2392,-0.2392,-0.2358,-0.2357,-0.2357,-0.2286,-0.2284,-0.2282,-0.2281,-0.2248,-0.2248,-0.2249,0,0,0,0,0,0,0,0,0,0,0,0,0,-0.2385,-0.2401,-0.2393,-0.2352,-0.2348,-0.2358,-0.2357,-0.2357,-0.2286,-0.2284,-0.2282,-0.228,-0.2248,-0.2248,-0.2249,-0.2296,0,0,-0.2251,-0.2251,0,0,0,0,0,0,0,0,-0.2386,-0.2384,-0.2359,-0.2355,-0.2351,-0.2324,-0.2348,-0.2336,-0.2287,-0.231,-0.2281,-0.2279,-0.2275,-0.2273,-0.2272,-0.2294,-0.2293,-0.2251,-0.2251,-0.2252,-0.2252,0,0,0,0,0,0,0,-0.2387,-0.2385,-0.2379,-0.2358,-0.2354,-0.2336,-0.2332,-0.2345,-0.2305,-0.2308,-0.2302,-0.2299,-0.2272,-0.2271,-0.227,-0.2292,-0.2251,-0.2252,-0.2252,-0.2252,-0.2351,-0.2353,0,0,0,0,0,0,-0.2393,-0.2387,-0.238,-0.2378,-0.2363,-0.2338,-0.2333,-0.2335,-0.2305,-0.2298,-0.2301,-0.2296,-0.2271,-0.227,-0.2269,-0.2321,-0.2252,-0.2252,-0.2253,-0.2349,-0.2352,-0.2354,0,0,0,0,0,0,-0.2394,-0.2393,-0.2381,-0.2381,-0.2378,-0.234,-0.2343,-0.2335,-0.2333,-0.2299,-0.2292,-0.2307,-0.2269,-0.2268,-0.2289,-0.2319,-0.2253,-0.2253,-0.2346,-0.235,-0.2353,-0.2427,0,0,0,0,0,0,-0.2394,-0.2394,-0.2411,-0.2382,-0.2378,-0.2402,-0.2345,-0.2336,-0.2334,-0.2328,-0.2303,-0.2297,-0.2267,-0.2289,-0.229,-0.2319,-0.2254,-0.2343,-0.2348,-0.2352,-0.2422,-0.2433,-0.2442,0,0,0,0,0,-0.2395,-0.2434,-0.2412,-0.2412,-0.2399,-0.2404,-0.2402,-0.2367,-0.2337,-0.2354,-0.2332,-0.2298,-0.2316,-0.2291,-0.2292,-0.2322,-0.2341,-0.2347,-0.2351,-0.2418,-0.2431,-0.2442,0,0,0,0,0,0,-0.2469,-0.243,-0.2405,-0.2436,-0.2424,-0.2392,-0.2413,-0.2382,-0.2379,-0.2373,-0.2329,-0.2324,-0.2352,-0.2339,-0.2313,-0.2365,-0.2323,-0.2328,-0.2373,-0.2385,-0.2395,-0.2398,-0.2254,0,0,0,0,0,-0.2489,-0.2496,-0.2461,-0.2492,-0.2487,-0.2451,-0.2452,-0.2426,-0.2412,-0.2407,-0.2386,-0.2375,-0.2377,-0.2381,-0.2381,-0.2419,-0.2413,-0.244,-0.245,-0.2459,-0.2464,-0.2483,-0.2495,-0.237,-0.237,-0.237,0,0,-0.2531,-0.251,-0.2517,-0.2506,-0.2494,-0.2503,-0.2447,-0.2459,-0.2465,-0.2409,-0.2427,-0.2412,-0.2396,-0.2426,-0.2438,-0.2416,-0.2497,-0.2465,-0.2472,-0.2473,-0.2489,-0.2501,-0.2512,-0.2374,-0.2373,-0.2373,0,0,-0.2611,-0.2596,-0.2619,-0.2607,-0.2589,-0.2564,-0.257,-0.2543,-0.253,-0.2548,-0.2505,-0.2512,-0.2518,-0.2509,-0.2505,-0.258,-0.2548,-0.2581,-0.2634,-0.2653,-0.2663,-0.2671,-0.2698,-0.2708,-0.2587,-0.2587,-0.2587,0,-0.2665,-0.2675,-0.2635,-0.2649,-0.2646,-0.2594,-0.2618,-0.2609,-0.2592,-0.2591,-0.2566,-0.2572,-0.2558,-0.2584,-0.2603,-0.2601,-0.2606,-0.2584,-0.2664,-0.2672,-0.268,-0.2705,-0.2715,-0.2591,-0.2591,-0.259,-0.259,0,-0.2743,-0.2751,-0.2772,-0.2756,-0.2755,-0.2774,-0.2738,-0.2741,-0.2715,-0.2693,-0.2712,-0.2693,-0.2689,-0.2693,-0.2668,-0.2716,-0.2703,-0.2672,-0.2628,-0.2696,-0.2719,-0.2729,-0.2597,-0.2596,-0.2594,-0.2593,0,0,-0.287,-0.283,-0.2839,-0.283,-0.2806,-0.2811,-0.2828,-0.2823,-0.2827,-0.2817,-0.283,-0.2836,-0.2807,-0.2802,-0.2775,-0.2792,-0.2852,-0.2758,-0.2757,-0.2777,-0.2905,-0.2929,-0.294,-0.2831,-0.2832,-0.2834,-0.2906,0,-0.2944,-0.297,-0.2934,-0.2967,-0.2974,-0.2925,-0.2939,-0.2926,-0.2906,-0.2909,-0.2887,-0.2892,-0.2853,-0.285,-0.2864,-0.2842,-0.2878,-0.2836,-0.2843,-0.2844,-0.2849,-0.2952,-0.2978,-0.3047,-0.2915,-0.2916,-0.2917,0,-0.3035,-0.3028,-0.3062,-0.3034,-0.3036,-0.305,-0.3042,-0.3046,-0.3029,-0.3014,-0.3008,-0.2976,-0.299,-0.2948,-0.2968,-0.294,-0.2941,-0.293,-0.2932,-0.2932,-0.2885,-0.2955,-0.3068,-0.3079,-0.2931,-0.293,-0.2929,0,-0.3124,-0.3123,-0.3143,-0.3138,-0.3106,-0.3117,-0.3104,-0.3086,-0.3085,-0.3078,-0.3077,-0.3073,-0.3071,-0.3068,-0.3035,-0.3007,-0.3059,-0.3014,-0.3047,-0.3048,-0.3061,-0.3061,-0.3176,-0.3061,-0.3061,-0.306,-0.306,0,-0.3211,-0.3234,-0.3183,-0.3195,-0.322,-0.3178,-0.3204,-0.3186,-0.317,-0.3179,-0.3135,-0.3145,-0.31,-0.3105,-0.3079,-0.31,-0.3099,-0.3087,-0.308,-0.3091,-0.3093,-0.3091,-0.3086,-0.3063,-0.3062,-0.3062,-0.3061,0,-0.3315,-0.3281,-0.33,-0.3268,-0.3261,-0.328,-0.3253,-0.3263,-0.324,-0.3252,-0.3252,-0.3216,-0.3219,-0.3186,-0.3183,-0.3165,-0.3198,-0.3182,-0.3203,-0.3198,-0.3234,-0.3231,-0.3352,-0.3366,-0.3242,-0.3243,-0.3245,0,-0.3372,-0.3389,-0.3358,-0.3361,-0.335,-0.3354,-0.3353,-0.3312,-0.3313,-0.3295,-0.3308,-0.3307,-0.3304,-0.3312,-0.3286,-0.3283,-0.3267,-0.331,-0.3267,-0.3277,-0.3268,-0.3268,-0.3269,-0.3319,-0.3321,-0.3322,-0.3323,0,-0.3479,-0.3461,-0.346,-0.3454,-0.3453,-0.3446,-0.3436,-0.3441,-0.3397,-0.34,-0.3401,-0.3399,-0.3395,-0.3395,-0.3387,-0.3375,-0.3342,-0.3337,-0.3344,-0.3356,-0.3368,-0.3362,-0.3228,-0.3334,-0.3333,-0.3332,-0.3332,-0.3331,-0.3561,-0.3573,-0.3554,-0.3554,-0.3542,-0.3534,-0.3542,-0.352,-0.352,-0.3514,-0.349,-0.3496,-0.3479,-0.3465,-0.3455,-0.346,-0.3439,-0.345,-0.3453,-0.3457,-0.3463,-0.3367,-0.3458,-0.3458,-0.3458,-0.3457,-0.3457,0,-0.3665,-0.365,-0.3651,-0.3638,-0.3638,-0.3606,-0.3594,-0.3596,-0.3602,-0.3589,-0.3586,-0.3589,-0.3588,-0.3562,-0.3558,-0.3567,-0.3552,-0.3568,-0.3567,-0.3565,-0.3482,-0.3476,-0.358,-0.358,-0.358,-0.358,-0.358,-0.358,-0.3719,-0.3738,-0.3718,-0.3731,-0.3715,-0.372,-0.3716,-0.3708,-0.3697,-0.3702,-0.3701,-0.3683,-0.3665,-0.3659,-0.3657,-0.365,-0.3651,-0.3671,-0.3659,-0.3582,-0.357,-0.3559,-0.3553,-0.3672,-0.3672,-0.3741,-0.3742,-0.3742]}]]